Farmingdale, NY

6:29 AM EDT on October 18, 2017 (GMT -0400)
Republic

Weather History for KFRG - January, 2013

Change the Weather History Date:

Tuesday, January 1, 2013

  Actual Average Record
Temperature  
Mean Temperature 34 °F -  
Max Temperature 39 °F 39 °F 59 °F (2005)
Min Temperature 27 °F 26 °F 12 °F (1997)
Degree Days  
Heating Degree Days 32    
Moisture  
Dew Point 21 °F    
Average Humidity 55    
Maximum Humidity 67    
Minimum Humidity 44    
Precipitation  
Precipitation 0.00 in - - ()
Sea Level Pressure  
Sea Level Pressure 29.90 in    
Wind  
Wind Speed 12 mph (WNW)    
Max Wind Speed 17 mph    
Max Gust Speed 25 mph    
Visibility 10 miles    
Events      
Averages and records for this station are not official NWS values.
T = Trace of Precipitation, MM = Missing Value Source: NWS Daily Summary

Daily Weather History Graph

Daily Weather History Graph

Search for Another Location

Airport or City:

Trip Planner

Search our weather history database for the weather conditions in past years. The results will help you decide how hot, cold, wet, or windy it might be!

Date:

Astronomy

Jan. 01, 2013 Rise Set
Actual Time 7:17 AM EST 4:37 PM EST
Civil Twilight 6:46 AM EST 5:07 PM EST
Nautical Twilight 6:12 AM EST 5:42 PM EST
Astronomical Twilight 5:39 AM EST 6:15 PM EST
Moon 9:07 PM EST (1/1) 9:27 AM EST (1/1)
Length of Visible Light 10h 21m
Length of Day
9h 19m
Waning Gibbous, 83% of the Moon is Illuminated
Jan 1
Waning Gibbous
Jan 4
Last Quarter
Jan 11
New
Jan 18
First Quarter
Jan 26
Full

Hourly Weather History & Observations

Time (EST) Temp. Windchill Dew Point Humidity Pressure Visibility Wind Dir Wind Speed Gust Speed Precip Events Conditions
1:53 AM 39.9 °F 32.5 °F 26.1 °F 58% 29.89 in 10.0 mi West 12.7 mph 18.4 mph N/A   Overcast
2:53 AM 39.0 °F 31.8 °F 27.0 °F 62% 29.87 in 10.0 mi West 11.5 mph - N/A   Scattered Clouds
3:53 AM 39.0 °F 31.8 °F 27.0 °F 62% 29.88 in 10.0 mi West 11.5 mph - N/A   Overcast
4:53 AM 39.0 °F 31.4 °F 27.0 °F 62% 29.88 in 10.0 mi West 12.7 mph - N/A   Overcast
5:53 AM 39.0 °F 30.3 °F 27.0 °F 62% 29.87 in 10.0 mi West 16.1 mph 20.7 mph N/A   Overcast
6:53 AM 39.0 °F 32.3 °F 26.1 °F 60% 29.88 in 10.0 mi West 10.4 mph - N/A   Mostly Cloudy
7:53 AM 39.0 °F 32.3 °F 26.1 °F 60% 29.88 in 10.0 mi West 10.4 mph - N/A   Scattered Clouds
9:53 AM 39.9 °F 33.9 °F 27.0 °F 60% 29.90 in 10.0 mi West 9.2 mph - N/A   Overcast
10:53 AM 39.9 °F 33.9 °F 26.1 °F 58% 29.89 in 10.0 mi WNW 9.2 mph 25.3 mph N/A   Overcast
11:53 AM 39.0 °F 32.3 °F 27.0 °F 62% 29.86 in 10.0 mi WNW 10.4 mph 20.7 mph N/A   Overcast
12:53 PM 37.0 °F 29.8 °F 27.0 °F 67% 29.86 in 10.0 mi NNW 10.4 mph - N/A   Overcast
2:53 PM 37.9 °F 30.9 °F 23.0 °F 55% 29.85 in 10.0 mi WNW 10.4 mph 17.3 mph N/A   Overcast
3:53 PM 37.9 °F 30.9 °F 21.0 °F 51% 29.87 in 10.0 mi WNW 10.4 mph - N/A   Scattered Clouds
4:53 PM 37.0 °F 29.8 °F 19.9 °F 50% 29.88 in 10.0 mi NNW 10.4 mph - N/A   Partly Cloudy
5:53 PM 35.1 °F 27.9 °F 18.0 °F 50% 29.91 in 10.0 mi NNW 9.2 mph 18.4 mph N/A   Clear
6:53 PM 34.0 °F 24.6 °F 14.0 °F 44% 29.93 in 10.0 mi NNW 13.8 mph - N/A   Clear
7:53 PM 32.0 °F 23.6 °F 14.0 °F 48% 29.94 in 10.0 mi NNW 10.4 mph - N/A   Clear
8:53 PM 30.9 °F 19.4 °F 12.0 °F 46% 29.96 in 10.0 mi NNW 17.3 mph 24.2 mph N/A   Clear
9:53 PM 30.0 °F 19.1 °F 10.9 °F 45% 29.98 in 10.0 mi NNW 15.0 mph 23.0 mph N/A   Clear
10:53 PM 28.0 °F 20.0 °F 10.0 °F 47% 30.00 in 10.0 mi NW 8.1 mph 20.7 mph N/A   Clear
11:53 PM 27.0 °F 18.0 °F 8.1 °F 45% 30.00 in 10.0 mi NW 9.2 mph - N/A   Clear